Location: Unspecified
(29.9680°N, 0.0000°E)
Time: 11:59:09
(UTC+00:00)

Explorer 7 - Pass Details

Date: 02 July 2019
Orbit: 485 x 680 km, 50.3° (Epoch: 23 July)

Event Time Altitude Azimuth Distance (km) Brightness Sun altitude
Rises 11:13:28 0° 321° (NW) 2,879 10.4 76.7°
Reaches altitude 10° 11:15:49 10° 328° (NNW) 2,003 9.7 77.2°
Maximum altitude 11:20:14 43° 40° (NE) 916 8.7 78.0°
Drops below altitude 10° 11:24:49 10° 112° (ESE) 2,084 10.1 78.8°
Sets 11:27:18 0° 119° (ESE) 3,009 10.7 79.3°
